TITAN 3C TRANSTAGE DEB, 1964

Orbit data source: Space-Track

TITAN 3C TRANSTAGE DEB, 1964 is space debris in LEO originally from a launch on Fri, 15 Oct 1965 UTC launched from the Air Force Eastern Test Range (AFETR). Debris objects in space refer to the collection of defunct objects orbiting the Earth. Examples of debris include non-operational satellites, rocket bodies, and fragments generated from explosions, collisions, or faulty payload assembly.

Loading next visibility...
Identifier
1964, 1965-082GZ
Orbit
LEO
Country
Flag of USUS
Related business
Manufacturer
Unknown
Mission
Spacecraft
Bus & Motor
Unknown
Mass
Unknown
Launch date (UTC)
1965-10-15 (60 years ago)
Launch vehicle
Unknown
Launch site
Air Force Eastern Test Range (AFETR)
Object type
Payload
Rocket body
Debris
Shape & HBR
Unknown
Radar Cross Section
Small (<0.1 m²)

Expand to show TLE details & history
Last TLE update: 14 hours ago

TLE from 14 hours ago
0 TITAN 3C TRANSTAGE DEB
1 01964U 65082GZ  25260.25637763  .00001287  00000-0  44483-3 0  9999
2 01964  32.1960 227.9039 0177371  55.3829 306.3397 14.25571148 78669
Epoch: 2025-09-17T06:09Z
TLE epoch observation values (Epoch: 2025-09-17T06:09:11.027Z)
Latitude
0.00004°
Longitude
139.17308°
Altitude
731.243 km
Speed
7.53 km/s
True Right ascension
15h 11m 36s
True Declination
0° 00' 00"
Sunlit
Object was in daylight at epoch
Visualization orbit readout
Latitude
Unknown
Longitude
Unknown
Altitude
Unknown
Speed
Unknown
Apparent Right ascension
Unknown
Apparent Declination
Unknown
Sunlit
N/A
Visualization observer readout
Local Sidereal Time
12:30:30
Azimuth
Unknown
Elevation
Unknown
Doppler factor
Unknown
Orbital elements
Apogee altitude
937.598 km
Perigee altitude
682.601 km
Semi-major axis
7,188.237 km
Eccentricity
0.01774
Inclination
32.196°
RAAN
227.9039°
Arg. of periapsis
55.3829°
True anomaly
304.68091°
Mean anomaly
306.3397°
Eccentric anomaly
305.51247°
Mean motion
3.56131 °/min
Orbital period
101.09 mins
BSTAR
0.00044483
Loading maneuver chart data...
Computing Atmospheric mass density...

Documentation

Showing up to 5 results
|